Time,TemperatureF,DewpointF,PressureIn,WindDirection,WindDirectionDegrees,WindSpeedMPH,WindSpeedGustMPH,Humidity,HourlyPrecipIn,Conditions,Clouds,dailyrainin,SoftwareType,DateUTC
2013-10-25 00:14:00,31.8,26.3,30.41,NE,34,3.0,3.0,80,0.00,,,0.00,Wunderground v.1.15,2013-10-25 05:14:00,
2013-10-25 00:24:00,32.1,26.6,30.41,NE,34,2.0,4.0,80,0.00,,,0.00,Wunderground v.1.15,2013-10-25 05:24:00,
2013-10-25 00:30:00,32.6,26.5,30.42,NE,34,3.0,4.0,78,0.00,,,0.00,Wunderground v.1.15,2013-10-25 05:30:00,
2013-10-25 00:35:00,32.7,26.6,30.42,NNE,26,3.0,5.0,78,0.00,,,0.00,Wunderground v.1.15,2013-10-25 05:35:00,
2013-10-25 00:41:00,32.6,26.5,30.42,NNW,327,3.0,5.0,78,0.00,,,0.00,Wunderground v.1.15,2013-10-25 05:41:00,
2013-10-25 00:47:00,32.4,26.3,30.42,NW,325,3.0,5.0,78,0.00,,,0.00,Wunderground v.1.15,2013-10-25 05:47:00,
2013-10-25 00:53:00,31.9,26.1,30.42,NW,325,3.0,5.0,79,0.00,,,0.00,Wunderground v.1.15,2013-10-25 05:53:00,
2013-10-25 00:59:00,31.6,26.1,30.42,NW,325,3.0,5.0,80,0.00,,,0.00,Wunderground v.1.15,2013-10-25 05:59:00,
2013-10-25 01:04:00,31.5,26.3,30.42,NW,324,3.0,5.0,81,0.00,,,0.00,Wunderground v.1.15,2013-10-25 06:04:00,
2013-10-25 01:10:00,31.6,26.4,30.42,NW,324,3.0,5.0,81,0.00,,,0.00,Wunderground v.1.15,2013-10-25 06:10:00,
2013-10-25 01:15:00,31.9,26.4,30.42,NW,324,3.0,5.0,80,0.00,,,0.00,Wunderground v.1.15,2013-10-25 06:15:00,
2013-10-25 01:21:00,32.0,26.5,30.42,NW,324,3.0,5.0,80,0.00,,,0.00,Wunderground v.1.15,2013-10-25 06:21:00,
2013-10-25 01:26:00,32.1,26.3,30.42,NW,324,2.0,5.0,79,0.00,,,0.00,Wunderground v.1.15,2013-10-25 06:26:00,
2013-10-25 01:32:00,32.1,26.3,30.42,NW,324,2.0,5.0,79,0.00,,,0.00,Wunderground v.1.15,2013-10-25 06:32:00,
2013-10-25 01:37:00,32.0,26.5,30.42,NW,324,2.0,5.0,80,0.00,,,0.00,Wunderground v.1.15,2013-10-25 06:37:00,
2013-10-25 01:43:00,31.7,26.2,30.42,NW,324,2.0,5.0,80,0.00,,,0.00,Wunderground v.1.15,2013-10-25 06:43:00,
2013-10-25 01:48:00,31.4,26.2,30.43,NW,324,2.0,5.0,81,0.00,,,0.00,Wunderground v.1.15,2013-10-25 06:48:00,
2013-10-25 01:54:00,31.2,26.0,30.43,NW,324,2.0,5.0,81,0.00,,,0.00,Wunderground v.1.15,2013-10-25 06:54:00,
2013-10-25 01:59:00,31.1,26.2,30.43,NW,324,2.0,5.0,82,0.00,,,0.00,Wunderground v.1.15,2013-10-25 06:59:00,
2013-10-25 02:05:00,30.5,25.7,30.43,NW,324,3.0,5.0,82,0.00,,,0.00,Wunderground v.1.15,2013-10-25 07:05:00,
2013-10-25 02:10:00,29.9,25.4,30.43,NW,324,4.0,5.0,83,0.00,,,0.00,Wunderground v.1.15,2013-10-25 07:10:00,
2013-10-25 02:16:00,30.0,26.0,30.43,NW,324,4.0,5.0,85,0.00,,,0.00,Wunderground v.1.15,2013-10-25 07:16:00,
2013-10-25 02:21:00,30.1,25.8,30.43,NW,322,4.0,5.0,84,0.00,,,0.00,Wunderground v.1.15,2013-10-25 07:21:00,
2013-10-25 02:27:00,29.9,25.7,30.43,NW,322,4.0,5.0,84,0.00,,,0.00,Wunderground v.1.15,2013-10-25 07:27:00,
2013-10-25 02:32:00,29.6,25.6,30.43,NW,322,3.0,5.0,85,0.00,,,0.00,Wunderground v.1.15,2013-10-25 07:32:00,
2013-10-25 02:38:00,29.6,25.9,30.43,NW,322,2.0,5.0,86,0.00,,,0.00,Wunderground v.1.15,2013-10-25 07:38:00,
2013-10-25 02:43:00,29.8,25.8,30.44,NW,322,2.0,5.0,85,0.00,,,0.00,Wunderground v.1.15,2013-10-25 07:43:00,
2013-10-25 02:49:00,30.2,26.2,30.44,NW,322,2.0,6.0,85,0.00,,,0.00,Wunderground v.1.15,2013-10-25 07:49:00,
2013-10-25 02:54:00,30.6,26.6,30.44,NW,322,3.0,5.0,85,0.00,,,0.00,Wunderground v.1.15,2013-10-25 07:54:00,
2013-10-25 03:00:00,30.9,26.6,30.44,NW,322,3.0,3.0,84,0.00,,,0.00,Wunderground v.1.15,2013-10-25 08:00:00,
2013-10-25 03:05:00,31.0,26.4,30.44,NW,322,3.0,5.0,83,0.00,,,0.00,Wunderground v.1.15,2013-10-25 08:05:00,
2013-10-25 03:11:00,31.0,26.4,30.44,NW,322,2.0,5.0,83,0.00,,,0.00,Wunderground v.1.15,2013-10-25 08:11:00,
2013-10-25 03:16:00,30.9,26.3,30.44,NW,322,2.0,5.0,83,0.00,,,0.00,Wunderground v.1.15,2013-10-25 08:16:00,
2013-10-25 03:22:00,30.9,26.3,30.44,NW,322,3.0,5.0,83,0.00,,,0.00,Wunderground v.1.15,2013-10-25 08:22:00,
2013-10-25 03:27:00,31.0,26.4,30.44,NW,322,2.0,5.0,83,0.00,,,0.00,Wunderground v.1.15,2013-10-25 08:27:00,
2013-10-25 03:33:00,30.8,26.2,30.44,NW,322,2.0,5.0,83,0.00,,,0.00,Wunderground v.1.15,2013-10-25 08:33:00,
2013-10-25 03:38:00,30.5,26.2,30.44,NW,322,2.0,5.0,84,0.00,,,0.00,Wunderground v.1.15,2013-10-25 08:38:00,
2013-10-25 03:44:00,29.9,25.7,30.44,NW,322,2.0,5.0,84,0.00,,,0.00,Wunderground v.1.15,2013-10-25 08:44:00,
2013-10-25 03:49:00,29.3,25.4,30.44,NW,322,2.0,5.0,85,0.00,,,0.00,Wunderground v.1.15,2013-10-25 08:49:00,
2013-10-25 03:55:00,29.1,25.4,30.44,NW,322,2.0,5.0,86,0.00,,,0.00,Wunderground v.1.15,2013-10-25 08:55:00,
2013-10-25 04:00:00,29.0,25.6,30.44,NW,322,2.0,5.0,87,0.00,,,0.00,Wunderground v.1.15,2013-10-25 09:00:00,
2013-10-25 04:06:00,29.2,25.8,30.44,NW,322,2.0,5.0,87,0.00,,,0.00,Wunderground v.1.15,2013-10-25 09:06:00,
2013-10-25 04:11:00,29.4,26.0,30.44,NW,322,2.0,5.0,87,0.00,,,0.00,Wunderground v.1.15,2013-10-25 09:11:00,
2013-10-25 04:17:00,29.3,25.6,30.44,NW,322,2.0,5.0,86,0.00,,,0.00,Wunderground v.1.15,2013-10-25 09:17:00,
2013-10-25 04:22:00,29.4,26.0,30.44,NW,322,2.0,5.0,87,0.00,,,0.00,Wunderground v.1.15,2013-10-25 09:22:00,
2013-10-25 04:28:00,29.7,26.0,30.44,NW,322,2.0,5.0,86,0.00,,,0.00,Wunderground v.1.15,2013-10-25 09:28:00,
2013-10-25 04:33:00,29.8,26.1,30.44,NW,322,2.0,5.0,86,0.00,,,0.00,Wunderground v.1.15,2013-10-25 09:33:00,
2013-10-25 04:39:00,29.7,25.7,30.44,NW,322,2.0,5.0,85,0.00,,,0.00,Wunderground v.1.15,2013-10-25 09:39:00,
2013-10-25 04:45:00,29.5,25.8,30.44,NW,322,2.0,5.0,86,0.00,,,0.00,Wunderground v.1.15,2013-10-25 09:45:00,
2013-10-25 04:51:00,29.1,25.4,30.44,NW,322,2.0,5.0,86,0.00,,,0.00,Wunderground v.1.15,2013-10-25 09:51:00,
2013-10-25 04:57:00,29.0,25.6,30.45,NW,322,4.0,5.0,87,0.00,,,0.00,Wunderground v.1.15,2013-10-25 09:57:00,
2013-10-25 05:02:00,29.1,25.7,30.45,NW,322,4.0,5.0,87,0.00,,,0.00,Wunderground v.1.15,2013-10-25 10:02:00,
2013-10-25 05:07:00,29.1,25.7,30.45,NW,322,2.0,5.0,87,0.00,,,0.00,Wunderground v.1.15,2013-10-25 10:07:00,
2013-10-25 05:13:00,29.1,25.7,30.45,NW,322,2.0,5.0,87,0.00,,,0.00,Wunderground v.1.15,2013-10-25 10:13:00,
2013-10-25 05:19:00,29.0,25.6,30.45,NW,322,3.0,5.0,87,0.00,,,0.00,Wunderground v.1.15,2013-10-25 10:19:00,
2013-10-25 05:24:00,29.0,25.6,30.46,NW,322,3.0,5.0,87,0.00,,,0.00,Wunderground v.1.15,2013-10-25 10:24:00,
2013-10-25 05:37:00,29.3,25.6,30.46,NW,322,3.0,5.0,86,0.00,,,0.00,Wunderground v.1.15,2013-10-25 10:37:00,
2013-10-25 05:42:00,29.3,25.9,30.46,NW,322,3.0,5.0,87,0.00,,,0.00,Wunderground v.1.15,2013-10-25 10:42:00,
2013-10-25 05:47:00,29.2,25.5,30.46,NW,322,3.0,5.0,86,0.00,,,0.00,Wunderground v.1.15,2013-10-25 10:47:00,
2013-10-25 05:53:00,29.2,25.5,30.46,NW,322,3.0,5.0,86,0.00,,,0.00,Wunderground v.1.15,2013-10-25 10:53:00,
2013-10-25 05:58:00,28.8,25.1,30.46,NW,322,3.0,5.0,86,0.00,,,0.00,Wunderground v.1.15,2013-10-25 10:58:00,
2013-10-25 06:04:00,28.8,25.4,30.46,NW,322,3.0,5.0,87,0.00,,,0.00,Wunderground v.1.15,2013-10-25 11:04:00,
2013-10-25 06:09:00,29.0,25.6,30.46,NW,322,3.0,5.0,87,0.00,,,0.00,Wunderground v.1.15,2013-10-25 11:09:00,
2013-10-25 06:15:00,29.2,25.8,30.46,NW,322,2.0,5.0,87,0.00,,,0.00,Wunderground v.1.15,2013-10-25 11:15:00,
2013-10-25 06:20:00,29.3,25.6,30.46,NW,322,3.0,3.0,86,0.00,,,0.00,Wunderground v.1.15,2013-10-25 11:20:00,
2013-10-25 06:27:00,28.9,25.2,30.46,NW,322,3.0,5.0,86,0.00,,,0.00,Wunderground v.1.15,2013-10-25 11:27:00,
2013-10-25 06:34:00,28.6,24.9,30.47,NW,322,3.0,5.0,86,0.00,,,0.00,Wunderground v.1.15,2013-10-25 11:34:00,
2013-10-25 06:40:00,28.2,24.8,30.47,NW,322,3.0,5.0,87,0.00,,,0.00,Wunderground v.1.15,2013-10-25 11:40:00,
2013-10-25 06:45:00,28.0,24.9,30.47,NW,322,4.0,5.0,88,0.00,,,0.00,Wunderground v.1.15,2013-10-25 11:45:00,
2013-10-25 06:51:00,28.4,25.3,30.47,NW,322,5.0,5.0,88,0.00,,,0.00,Wunderground v.1.15,2013-10-25 11:51:00,
2013-10-25 06:57:00,28.4,25.0,30.47,NW,322,4.0,5.0,87,0.00,,,0.00,Wunderground v.1.15,2013-10-25 11:57:00,
2013-10-25 07:02:00,28.2,25.1,30.47,NW,322,4.0,5.0,88,0.00,,,0.00,Wunderground v.1.15,2013-10-25 12:02:00,
2013-10-25 07:08:00,28.1,25.0,30.47,NW,322,3.0,5.0,88,0.00,,,0.00,Wunderground v.1.15,2013-10-25 12:08:00,
2013-10-25 07:13:00,28.1,25.0,30.47,NW,322,3.0,5.0,88,0.00,,,0.00,Wunderground v.1.15,2013-10-25 12:13:00,
2013-10-25 07:19:00,28.0,24.9,30.47,NW,322,2.0,5.0,88,0.00,,,0.00,Wunderground v.1.15,2013-10-25 12:19:00,
2013-10-25 07:26:00,27.9,24.8,30.47,NW,322,2.0,5.0,88,0.00,,,0.00,Wunderground v.1.15,2013-10-25 12:26:00,
2013-10-25 07:32:00,27.9,24.8,30.47,NW,322,2.0,5.0,88,0.00,,,0.00,Wunderground v.1.15,2013-10-25 12:32:00,
2013-10-25 07:37:00,27.7,24.6,30.47,NW,322,2.0,5.0,88,0.00,,,0.00,Wunderground v.1.15,2013-10-25 12:37:00,
2013-10-25 07:43:00,27.5,24.7,30.47,NW,322,3.0,5.0,89,0.00,,,0.00,Wunderground v.1.15,2013-10-25 12:43:00,
2013-10-25 07:48:00,27.6,24.8,30.47,NW,322,3.0,5.0,89,0.00,,,0.00,Wunderground v.1.15,2013-10-25 12:48:00,
2013-10-25 07:55:00,28.1,25.3,30.47,NW,322,4.0,5.0,89,0.00,,,0.00,Wunderground v.1.15,2013-10-25 12:55:00,
2013-10-25 08:01:00,28.5,25.7,30.47,NW,322,4.0,5.0,89,0.00,,,0.00,Wunderground v.1.15,2013-10-25 13:01:00,
2013-10-25 08:07:00,29.0,26.2,30.47,NW,322,4.0,5.0,89,0.00,,,0.00,Wunderground v.1.15,2013-10-25 13:07:00,
2013-10-25 08:13:00,29.6,26.5,30.47,NW,320,5.0,6.0,88,0.00,,,0.00,Wunderground v.1.15,2013-10-25 13:13:00,
2013-10-25 08:18:00,30.2,26.8,30.47,NW,318,5.0,6.0,87,0.00,,,0.00,Wunderground v.1.15,2013-10-25 13:18:00,
2013-10-25 08:23:00,30.8,27.4,30.48,NW,317,5.0,6.0,87,0.00,,,0.00,Wunderground v.1.15,2013-10-25 13:23:00,
2013-10-25 08:29:00,31.4,27.7,30.48,NW,310,5.0,6.0,86,0.00,,,0.00,Wunderground v.1.15,2013-10-25 13:29:00,
2013-10-25 08:35:00,32.0,27.7,30.48,NW,309,5.0,7.0,84,0.00,,,0.00,Wunderground v.1.15,2013-10-25 13:35:00,
2013-10-25 08:40:00,32.7,28.1,30.48,NW,309,5.0,5.0,83,0.00,,,0.00,Wunderground v.1.15,2013-10-25 13:40:00,
2013-10-25 08:45:00,33.3,28.4,30.48,NW,306,5.0,6.0,82,0.00,,,0.00,Wunderground v.1.15,2013-10-25 13:45:00,
2013-10-25 08:51:00,34.0,28.5,30.48,NW,305,5.0,6.0,80,0.00,,,0.00,Wunderground v.1.15,2013-10-25 13:51:00,
2013-10-25 08:57:00,34.8,29.0,30.48,NW,304,5.0,6.0,79,0.00,,,0.00,Wunderground v.1.15,2013-10-25 13:57:00,
2013-10-25 09:02:00,35.6,29.4,30.48,NW,304,4.0,5.0,78,0.00,,,0.00,Wunderground v.1.15,2013-10-25 14:02:00,
2013-10-25 09:08:00,36.3,29.5,30.48,NW,305,4.0,5.0,76,0.00,,,0.00,Wunderground v.1.15,2013-10-25 14:08:00,
2013-10-25 09:13:00,36.9,29.7,30.48,NW,304,5.0,6.0,75,0.00,,,0.00,Wunderground v.1.15,2013-10-25 14:13:00,
2013-10-25 09:22:00,38.1,30.2,30.48,NW,304,5.0,5.0,73,0.00,,,0.00,Wunderground v.1.15,2013-10-25 14:22:00,
2013-10-25 09:28:00,38.9,30.6,30.49,NW,304,5.0,6.0,72,0.00,,,0.00,Wunderground v.1.15,2013-10-25 14:28:00,
2013-10-25 09:34:00,39.5,30.9,30.49,NW,309,4.0,5.0,71,0.00,,,0.00,Wunderground v.1.15,2013-10-25 14:34:00,
2013-10-25 09:39:00,40.1,30.7,30.48,NW,309,4.0,6.0,69,0.00,,,0.00,Wunderground v.1.15,2013-10-25 14:39:00,
2013-10-25 09:45:00,40.6,30.9,30.48,NW,305,4.0,5.0,68,0.00,,,0.00,Wunderground v.1.15,2013-10-25 14:45:00,
2013-10-25 09:50:00,41.5,31.4,30.48,NW,305,4.0,4.0,67,0.00,,,0.00,Wunderground v.1.15,2013-10-25 14:50:00,
2013-10-25 09:56:00,42.2,31.3,30.48,NW,306,4.0,5.0,65,0.00,,,0.00,Wunderground v.1.15,2013-10-25 14:56:00,
2013-10-25 10:01:00,42.8,31.5,30.48,NW,306,4.0,5.0,64,0.00,,,0.00,Wunderground v.1.15,2013-10-25 15:01:00,
2013-10-25 10:07:00,43.6,31.8,30.48,NW,309,4.0,6.0,63,0.00,,,0.00,Wunderground v.1.15,2013-10-25 15:07:00,
2013-10-25 10:12:00,44.2,31.6,30.48,NW,307,4.0,5.0,61,0.00,,,0.00,Wunderground v.1.15,2013-10-25 15:12:00,
2013-10-25 10:18:00,45.1,32.0,30.48,NW,305,5.0,6.0,60,0.00,,,0.00,Wunderground v.1.15,2013-10-25 15:18:00,
2013-10-25 10:23:00,45.7,31.8,30.48,NW,309,5.0,6.0,58,0.00,,,0.00,Wunderground v.1.15,2013-10-25 15:23:00,
2013-10-25 10:29:00,46.1,31.3,30.48,WNW,290,5.0,9.0,56,0.00,,,0.00,Wunderground v.1.15,2013-10-25 15:29:00,
2013-10-25 10:34:00,46.6,31.7,30.47,WNW,299,6.0,7.0,56,0.00,,,0.00,Wunderground v.1.15,2013-10-25 15:34:00,
2013-10-25 10:40:00,47.2,31.4,30.47,NW,313,5.0,5.0,54,0.00,,,0.00,Wunderground v.1.15,2013-10-25 15:40:00,
2013-10-25 10:55:00,48.7,30.9,30.47,West,279,5.0,5.0,50,0.00,,,0.00,Wunderground v.1.15,2013-10-25 15:55:00,
2013-10-25 11:01:00,49.0,29.6,30.47,NW,312,7.0,7.0,47,0.00,,,0.00,Wunderground v.1.15,2013-10-25 16:01:00,
2013-10-25 11:07:00,49.1,30.2,30.47,WNW,287,6.0,8.0,48,0.00,,,0.00,Wunderground v.1.15,2013-10-25 16:07:00,
2013-10-25 11:12:00,49.5,30.1,30.47,NW,311,5.0,8.0,47,0.00,,,0.00,Wunderground v.1.15,2013-10-25 16:12:00,
2013-10-25 11:17:00,49.5,29.6,30.47,NW,311,6.0,12.0,46,0.00,,,0.00,Wunderground v.1.15,2013-10-25 16:17:00,
2013-10-25 11:23:00,50.0,30.0,30.46,West,279,7.0,9.0,46,0.00,,,0.00,Wunderground v.1.15,2013-10-25 16:23:00,
2013-10-25 11:28:00,50.2,30.2,30.46,WNW,302,7.0,9.0,46,0.00,,,0.00,Wunderground v.1.15,2013-10-25 16:28:00,
2013-10-25 11:34:00,49.9,28.8,30.46,NW,318,8.0,9.0,44,0.00,,,0.00,Wunderground v.1.15,2013-10-25 16:34:00,
2013-10-25 11:39:00,50.1,29.6,30.46,WNW,294,8.0,10.0,45,0.00,,,0.00,Wunderground v.1.15,2013-10-25 16:39:00,
2013-10-25 11:45:00,50.8,30.2,30.46,NW,306,7.0,12.0,45,0.00,,,0.00,Wunderground v.1.15,2013-10-25 16:45:00,
2013-10-25 11:51:00,51.1,29.9,30.46,West,280,7.0,8.0,44,0.00,,,0.00,Wunderground v.1.15,2013-10-25 16:51:00,
2013-10-25 11:57:00,50.9,29.2,30.45,NW,306,7.0,10.0,43,0.00,,,0.00,Wunderground v.1.15,2013-10-25 16:57:00,
2013-10-25 12:02:00,51.4,29.1,30.45,West,278,7.0,8.0,42,0.00,,,0.00,Wunderground v.1.15,2013-10-25 17:02:00,
2013-10-25 12:08:00,51.7,29.3,30.45,WNW,291,8.0,9.0,42,0.00,,,0.00,Wunderground v.1.15,2013-10-25 17:08:00,
2013-10-25 12:13:00,51.2,28.9,30.44,WSW,255,8.0,11.0,42,0.00,,,0.00,Wunderground v.1.15,2013-10-25 17:13:00,
2013-10-25 12:19:00,51.5,29.1,30.44,WNW,288,8.0,11.0,42,0.00,,,0.00,Wunderground v.1.15,2013-10-25 17:19:00,
2013-10-25 12:24:00,51.9,28.9,30.44,NW,307,8.0,11.0,41,0.00,,,0.00,Wunderground v.1.15,2013-10-25 17:24:00,
2013-10-25 12:30:00,52.1,29.1,30.43,West,270,8.0,8.0,41,0.00,,,0.00,Wunderground v.1.15,2013-10-25 17:30:00,
2013-10-25 12:35:00,52.4,29.4,30.43,NW,319,8.0,10.0,41,0.00,,,0.00,Wunderground v.1.15,2013-10-25 17:35:00,
2013-10-25 12:41:00,52.3,29.3,30.42,NW,309,7.0,10.0,41,0.00,,,0.00,Wunderground v.1.15,2013-10-25 17:41:00,
2013-10-25 12:46:00,52.5,27.6,30.42,NW,306,8.0,10.0,38,0.00,,,0.00,Wunderground v.1.15,2013-10-25 17:46:00,
2013-10-25 12:52:00,52.6,27.7,30.42,West,277,8.0,10.0,38,0.00,,,0.00,Wunderground v.1.15,2013-10-25 17:52:00,
2013-10-25 12:57:00,53.0,27.4,30.42,NW,309,8.0,10.0,37,0.00,,,0.00,Wunderground v.1.15,2013-10-25 17:57:00,
2013-10-25 13:03:00,53.1,26.8,30.41,WNW,293,8.0,13.0,36,0.00,,,0.00,Wunderground v.1.15,2013-10-25 18:03:00,
2013-10-25 13:09:00,53.4,28.4,30.41,NW,305,8.0,13.0,38,0.00,,,0.00,Wunderground v.1.15,2013-10-25 18:09:00,
2013-10-25 13:23:00,53.4,27.8,30.40,WNW,291,8.0,8.0,37,0.00,,,0.00,Wunderground v.1.15,2013-10-25 18:23:00,
2013-10-25 13:29:00,53.7,28.7,30.39,West,271,8.0,12.0,38,0.00,,,0.00,Wunderground v.1.15,2013-10-25 18:29:00,
2013-10-25 13:34:00,54.0,28.9,30.39,WNW,291,9.0,10.0,38,0.00,,,0.00,Wunderground v.1.15,2013-10-25 18:34:00,
2013-10-25 13:40:00,53.7,27.4,30.39,WNW,283,10.0,13.0,36,0.00,,,0.00,Wunderground v.1.15,2013-10-25 18:40:00,
2013-10-25 13:45:00,53.8,28.1,30.38,WSW,258,9.0,13.0,37,0.00,,,0.00,Wunderground v.1.15,2013-10-25 18:45:00,
2013-10-25 13:51:00,54.1,28.4,30.38,WSW,250,9.0,10.0,37,0.00,,,0.00,Wunderground v.1.15,2013-10-25 18:51:00,
2013-10-25 13:56:00,54.2,27.8,30.38,NW,312,10.0,12.0,36,0.00,,,0.00,Wunderground v.1.15,2013-10-25 18:56:00,
2013-10-25 14:02:00,54.1,27.7,30.37,NW,318,9.0,14.0,36,0.00,,,0.00,Wunderground v.1.15,2013-10-25 19:02:00,
2013-10-25 14:07:00,54.3,27.9,30.37,WNW,296,10.0,14.0,36,0.00,,,0.00,Wunderground v.1.15,2013-10-25 19:07:00,
2013-10-25 14:13:00,54.4,28.0,30.36,WNW,291,9.0,10.0,36,0.00,,,0.00,Wunderground v.1.15,2013-10-25 19:13:00,
2013-10-25 14:18:00,54.5,27.4,30.36,West,272,10.0,12.0,35,0.00,,,0.00,Wunderground v.1.15,2013-10-25 19:18:00,
2013-10-25 14:24:00,54.3,27.2,30.36,WNW,290,11.0,13.0,35,0.00,,,0.00,Wunderground v.1.15,2013-10-25 19:24:00,
2013-10-25 14:29:00,54.5,27.4,30.35,WNW,292,11.0,13.0,35,0.00,,,0.00,Wunderground v.1.15,2013-10-25 19:29:00,
2013-10-25 14:35:00,55.1,27.2,30.35,WNW,293,9.0,14.0,34,0.00,,,0.00,Wunderground v.1.15,2013-10-25 19:35:00,
2013-10-25 14:40:00,54.5,26.7,30.35,WNW,292,10.0,10.0,34,0.00,,,0.00,Wunderground v.1.15,2013-10-25 19:40:00,
2013-10-25 14:46:00,54.6,26.8,30.34,West,272,11.0,14.0,34,0.00,,,0.00,Wunderground v.1.15,2013-10-25 19:46:00,
2013-10-25 14:52:00,55.3,28.1,30.34,West,266,9.0,12.0,35,0.00,,,0.00,Wunderground v.1.15,2013-10-25 19:52:00,
2013-10-25 14:57:00,55.6,27.6,30.34,WNW,294,8.0,12.0,34,0.00,,,0.00,Wunderground v.1.15,2013-10-25 19:57:00,
2013-10-25 15:02:00,55.1,26.5,30.34,WNW,303,10.0,14.0,33,0.00,,,0.00,Wunderground v.1.15,2013-10-25 20:02:00,
2013-10-25 15:08:00,55.0,27.1,30.33,WNW,294,10.0,14.0,34,0.00,,,0.00,Wunderground v.1.15,2013-10-25 20:08:00,
2013-10-25 15:14:00,55.6,26.9,30.33,WNW,299,9.0,11.0,33,0.00,,,0.00,Wunderground v.1.15,2013-10-25 20:14:00,
2013-10-25 15:19:00,55.3,26.7,30.33,WNW,289,9.0,12.0,33,0.00,,,0.00,Wunderground v.1.15,2013-10-25 20:19:00,
2013-10-25 15:24:00,54.8,26.9,30.33,West,264,10.0,12.0,34,0.00,,,0.00,Wunderground v.1.15,2013-10-25 20:24:00,
2013-10-25 15:30:00,55.2,26.6,30.32,West,263,10.0,11.0,33,0.00,,,0.00,Wunderground v.1.15,2013-10-25 20:30:00,
2013-10-25 15:36:00,55.1,26.5,30.32,WNW,288,10.0,13.0,33,0.00,,,0.00,Wunderground v.1.15,2013-10-25 20:36:00,
2013-10-25 15:41:00,54.9,26.3,30.31,NW,317,10.0,12.0,33,0.00,,,0.00,Wunderground v.1.15,2013-10-25 20:41:00,
2013-10-25 15:47:00,55.1,27.2,30.31,WNW,296,9.0,12.0,34,0.00,,,0.00,Wunderground v.1.15,2013-10-25 20:47:00,
2013-10-25 15:52:00,55.2,27.3,30.31,West,277,8.0,9.0,34,0.00,,,0.00,Wunderground v.1.15,2013-10-25 20:52:00,
2013-10-25 15:58:00,55.4,27.5,30.31,WSW,243,8.0,10.0,34,0.00,,,0.00,Wunderground v.1.15,2013-10-25 20:58:00,
2013-10-25 16:03:00,55.1,26.5,30.30,WNW,296,9.0,10.0,33,0.00,,,0.00,Wunderground v.1.15,2013-10-25 21:03:00,
2013-10-25 16:09:00,55.0,26.4,30.30,WNW,291,9.0,11.0,33,0.00,,,0.00,Wunderground v.1.15,2013-10-25 21:09:00,
2013-10-25 16:14:00,54.8,26.9,30.30,NW,305,10.0,12.0,34,0.00,,,0.00,Wunderground v.1.15,2013-10-25 21:14:00,
2013-10-25 16:28:00,54.9,27.0,30.29,WNW,290,9.0,9.0,34,0.00,,,0.00,Wunderground v.1.15,2013-10-25 21:28:00,
2013-10-25 16:34:00,54.7,26.8,30.29,WSW,254,9.0,13.0,34,0.00,,,0.00,Wunderground v.1.15,2013-10-25 21:34:00,
2013-10-25 16:39:00,54.7,26.8,30.29,WNW,288,8.0,13.0,34,0.00,,,0.00,Wunderground v.1.15,2013-10-25 21:39:00,
2013-10-25 16:45:00,54.8,26.2,30.29,WNW,288,8.0,10.0,33,0.00,,,0.00,Wunderground v.1.15,2013-10-25 21:45:00,
2013-10-25 16:50:00,54.7,26.1,30.28,WNW,288,7.0,10.0,33,0.00,,,0.00,Wunderground v.1.15,2013-10-25 21:50:00,
2013-10-25 16:56:00,54.8,26.9,30.28,WNW,288,6.0,10.0,34,0.00,,,0.00,Wunderground v.1.15,2013-10-25 21:56:00,
2013-10-25 17:01:00,54.3,26.5,30.28,West,274,8.0,11.0,34,0.00,,,0.00,Wunderground v.1.15,2013-10-25 22:01:00,
2013-10-25 17:07:00,54.0,26.9,30.28,West,280,9.0,11.0,35,0.00,,,0.00,Wunderground v.1.15,2013-10-25 22:07:00,
2013-10-25 17:12:00,53.8,27.4,30.27,WNW,292,9.0,9.0,36,0.00,,,0.00,Wunderground v.1.15,2013-10-25 22:12:00,
2013-10-25 17:18:00,53.6,27.9,30.27,West,269,8.0,10.0,37,0.00,,,0.00,Wunderground v.1.15,2013-10-25 22:18:00,
2013-10-25 17:23:00,53.4,27.1,30.27,West,271,8.0,11.0,36,0.00,,,0.00,Wunderground v.1.15,2013-10-25 22:23:00,
2013-10-25 17:29:00,53.2,26.9,30.27,West,272,9.0,11.0,36,0.00,,,0.00,Wunderground v.1.15,2013-10-25 22:29:00,
2013-10-25 17:35:00,53.0,26.7,30.26,WNW,286,8.0,10.0,36,0.00,,,0.00,Wunderground v.1.15,2013-10-25 22:35:00,
2013-10-25 17:40:00,52.8,26.6,30.26,West,273,8.0,8.0,36,0.00,,,0.00,Wunderground v.1.15,2013-10-25 22:40:00,
2013-10-25 17:45:00,52.5,26.9,30.26,WNW,294,8.0,11.0,37,0.00,,,0.00,Wunderground v.1.15,2013-10-25 22:45:00,
2013-10-25 17:51:00,52.1,26.6,30.26,WNW,292,7.0,8.0,37,0.00,,,0.00,Wunderground v.1.15,2013-10-25 22:51:00,
2013-10-25 17:57:00,51.6,26.8,30.26,WNW,284,7.0,11.0,38,0.00,,,0.00,Wunderground v.1.15,2013-10-25 22:57:00,
2013-10-25 18:02:00,51.2,27.1,30.26,West,279,6.0,8.0,39,0.00,,,0.00,Wunderground v.1.15,2013-10-25 23:02:00,
2013-10-25 18:07:00,50.6,27.1,30.26,West,273,6.0,8.0,40,0.00,,,0.00,Wunderground v.1.15,2013-10-25 23:07:00,
2013-10-25 18:13:00,49.9,27.1,30.25,West,272,5.0,6.0,41,0.00,,,0.00,Wunderground v.1.15,2013-10-25 23:13:00,
2013-10-25 18:19:00,49.2,27.1,30.25,West,273,4.0,6.0,42,0.00,,,0.00,Wunderground v.1.15,2013-10-25 23:19:00,
2013-10-25 18:24:00,48.5,27.0,30.25,West,272,4.0,5.0,43,0.00,,,0.00,Wunderground v.1.15,2013-10-25 23:24:00,
2013-10-25 18:29:00,47.8,26.9,30.25,West,273,3.0,5.0,44,0.00,,,0.00,Wunderground v.1.15,2013-10-25 23:29:00,
2013-10-25 18:35:00,46.9,27.2,30.24,West,273,3.0,5.0,46,0.00,,,0.00,Wunderground v.1.15,2013-10-25 23:35:00,
2013-10-25 18:41:00,46.6,27.4,30.24,West,273,3.0,5.0,47,0.00,,,0.00,Wunderground v.1.15,2013-10-25 23:41:00,
2013-10-25 18:46:00,46.4,27.8,30.24,West,272,3.0,5.0,48,0.00,,,0.00,Wunderground v.1.15,2013-10-25 23:46:00,
2013-10-25 18:52:00,46.4,27.8,30.24,West,273,3.0,5.0,48,0.00,,,0.00,Wunderground v.1.15,2013-10-25 23:52:00,
2013-10-25 18:57:00,46.2,27.6,30.24,West,272,3.0,5.0,48,0.00,,,0.00,Wunderground v.1.15,2013-10-25 23:57:00,
2013-10-25 19:03:00,46.0,27.9,30.24,West,272,3.0,5.0,49,0.00,,,0.00,Wunderground v.1.15,2013-10-26 00:03:00,
2013-10-25 19:09:00,45.9,27.8,30.24,West,272,4.0,5.0,49,0.00,,,0.00,Wunderground v.1.15,2013-10-26 00:09:00,
2013-10-25 19:15:00,46.0,27.9,30.24,West,273,4.0,5.0,49,0.00,,,0.00,Wunderground v.1.15,2013-10-26 00:15:00,
2013-10-25 19:20:00,45.7,27.6,30.24,West,272,4.0,5.0,49,0.00,,,0.00,Wunderground v.1.15,2013-10-26 00:20:00,
2013-10-25 19:26:00,45.7,27.6,30.23,West,272,4.0,7.0,49,0.00,,,0.00,Wunderground v.1.15,2013-10-26 00:26:00,
2013-10-25 19:31:00,45.7,28.1,30.23,West,266,5.0,7.0,50,0.00,,,0.00,Wunderground v.1.15,2013-10-26 00:31:00,
2013-10-25 19:37:00,45.7,28.1,30.23,West,270,5.0,7.0,50,0.00,,,0.00,Wunderground v.1.15,2013-10-26 00:37:00,
2013-10-25 19:42:00,45.9,27.8,30.23,West,271,5.0,6.0,49,0.00,,,0.00,Wunderground v.1.15,2013-10-26 00:42:00,
2013-10-25 19:48:00,45.7,28.1,30.23,West,268,5.0,8.0,50,0.00,,,0.00,Wunderground v.1.15,2013-10-26 00:48:00,
2013-10-25 19:53:00,45.5,27.9,30.22,West,267,5.0,6.0,50,0.00,,,0.00,Wunderground v.1.15,2013-10-26 00:53:00,
2013-10-25 19:59:00,45.4,27.8,30.22,West,267,5.0,6.0,50,0.00,,,0.00,Wunderground v.1.15,2013-10-26 00:59:00,
2013-10-25 20:04:00,45.3,27.7,30.22,West,268,5.0,5.0,50,0.00,,,0.00,Wunderground v.1.15,2013-10-26 01:04:00,
2013-10-25 20:10:00,45.1,27.6,30.22,West,268,4.0,6.0,50,0.00,,,0.00,Wunderground v.1.15,2013-10-26 01:10:00,
2013-10-25 20:15:00,44.8,27.8,30.21,West,268,4.0,7.0,51,0.00,,,0.00,Wunderground v.1.15,2013-10-26 01:15:00,
2013-10-25 20:21:00,44.6,28.0,30.21,West,269,5.0,5.0,52,0.00,,,0.00,Wunderground v.1.15,2013-10-26 01:21:00,
2013-10-25 20:26:00,44.6,28.0,30.21,West,270,5.0,5.0,52,0.00,,,0.00,Wunderground v.1.15,2013-10-26 01:26:00,
2013-10-25 20:37:00,44.7,28.1,30.21,West,269,5.0,5.0,52,0.00,,,0.00,Wunderground v.1.15,2013-10-26 01:37:00,
2013-10-25 20:42:00,44.7,27.7,30.21,West,262,6.0,10.0,51,0.00,,,0.00,Wunderground v.1.15,2013-10-26 01:42:00,
2013-10-25 20:47:00,44.5,28.0,30.20,West,262,5.0,10.0,52,0.00,,,0.00,Wunderground v.1.15,2013-10-26 01:47:00,
2013-10-25 20:53:00,44.1,28.0,30.20,West,263,5.0,6.0,53,0.00,,,0.00,Wunderground v.1.15,2013-10-26 01:53:00,
2013-10-25 20:58:00,43.8,27.8,30.20,West,263,5.0,6.0,53,0.00,,,0.00,Wunderground v.1.15,2013-10-26 01:58:00,
2013-10-25 21:04:00,43.7,28.1,30.20,West,265,5.0,5.0,54,0.00,,,0.00,Wunderground v.1.15,2013-10-26 02:04:00,
2013-10-25 21:09:00,43.4,27.8,30.20,West,265,6.0,7.0,54,0.00,,,0.00,Wunderground v.1.15,2013-10-26 02:09:00,
2013-10-25 21:15:00,43.4,28.3,30.19,West,265,5.0,6.0,55,0.00,,,0.00,Wunderground v.1.15,2013-10-26 02:15:00,
2013-10-25 21:20:00,43.4,28.3,30.19,West,265,5.0,5.0,55,0.00,,,0.00,Wunderground v.1.15,2013-10-26 02:20:00,
2013-10-25 21:26:00,43.2,28.1,30.19,West,265,5.0,6.0,55,0.00,,,0.00,Wunderground v.1.15,2013-10-26 02:26:00,
2013-10-25 21:32:00,43.2,28.5,30.19,West,268,6.0,7.0,56,0.00,,,0.00,Wunderground v.1.15,2013-10-26 02:32:00,
2013-10-25 21:37:00,43.3,28.2,30.18,West,276,6.0,7.0,55,0.00,,,0.00,Wunderground v.1.15,2013-10-26 02:37:00,
2013-10-25 21:43:00,43.4,28.3,30.19,West,273,6.0,6.0,55,0.00,,,0.00,Wunderground v.1.15,2013-10-26 02:43:00,
2013-10-25 21:48:00,43.4,28.3,30.19,West,273,5.0,6.0,55,0.00,,,0.00,Wunderground v.1.15,2013-10-26 02:48:00,
2013-10-25 22:04:00,42.5,28.3,30.18,West,273,4.0,6.0,57,0.00,,,0.00,Wunderground v.1.15,2013-10-26 03:04:00,
2013-10-25 22:10:00,42.2,28.5,30.18,West,273,4.0,6.0,58,0.00,,,0.00,Wunderground v.1.15,2013-10-26 03:10:00,
2013-10-25 22:16:00,42.2,28.5,30.17,West,273,5.0,7.0,58,0.00,,,0.00,Wunderground v.1.15,2013-10-26 03:16:00,
2013-10-25 22:21:00,42.3,28.6,30.17,West,267,5.0,5.0,58,0.00,,,0.00,Wunderground v.1.15,2013-10-26 03:21:00,
2013-10-25 22:27:00,42.1,28.4,30.17,West,267,5.0,5.0,58,0.00,,,0.00,Wunderground v.1.15,2013-10-26 03:27:00,
2013-10-25 22:32:00,42.1,28.4,30.17,West,269,5.0,5.0,58,0.00,,,0.00,Wunderground v.1.15,2013-10-26 03:32:00,
2013-10-25 22:38:00,42.0,28.3,30.17,West,269,4.0,6.0,58,0.00,,,0.00,Wunderground v.1.15,2013-10-26 03:38:00,
2013-10-25 22:43:00,41.9,28.2,30.17,West,269,4.0,5.0,58,0.00,,,0.00,Wunderground v.1.15,2013-10-26 03:43:00,
2013-10-25 22:49:00,41.8,28.1,30.17,West,269,4.0,6.0,58,0.00,,,0.00,Wunderground v.1.15,2013-10-26 03:49:00,
2013-10-25 22:54:00,41.6,27.9,30.17,West,269,4.0,6.0,58,0.00,,,0.00,Wunderground v.1.15,2013-10-26 03:54:00,
2013-10-25 23:00:00,41.6,27.9,30.17,West,269,4.0,5.0,58,0.00,,,0.00,Wunderground v.1.15,2013-10-26 04:00:00,
2013-10-25 23:01:00,41.6,27.9,30.17,West,269,4.0,5.0,58,0.00,,,0.00,Wunderground v.1.15,2013-10-26 04:01:00,
2013-10-25 23:02:00,41.6,27.9,30.17,West,269,4.0,5.0,58,0.00,,,0.00,Wunderground v.1.15,2013-10-26 04:02:00,
2013-10-25 23:03:00,41.6,27.9,30.17,West,269,4.0,5.0,58,0.00,,,0.00,Wunderground v.1.15,2013-10-26 04:03:00,
2013-10-25 23:08:00,41.7,28.0,30.17,West,269,4.0,6.0,58,0.00,,,0.00,Wunderground v.1.15,2013-10-26 04:08:00,
2013-10-25 23:10:00,41.8,28.1,30.17,West,269,4.0,6.0,58,0.00,,,0.00,Wunderground v.1.15,2013-10-26 04:10:00,
2013-10-25 23:16:00,42.2,28.0,30.17,West,269,5.0,7.0,57,0.00,,,0.00,Wunderground v.1.15,2013-10-26 04:16:00,
2013-10-25 23:22:00,42.6,28.0,30.17,West,272,5.0,6.0,56,0.00,,,0.00,Wunderground v.1.15,2013-10-26 04:22:00,
2013-10-25 23:31:00,42.6,28.0,30.16,West,272,5.0,5.0,56,0.00,,,0.00,Wunderground v.1.15,2013-10-26 04:31:00,
2013-10-25 23:39:00,42.5,27.9,30.16,West,272,5.0,6.0,56,0.00,,,0.00,Wunderground v.1.15,2013-10-26 04:39:00,
2013-10-25 23:45:00,42.6,28.0,30.15,West,270,6.0,8.0,56,0.00,,,0.00,Wunderground v.1.15,2013-10-26 04:45:00,
2013-10-25 23:50:00,42.6,28.0,30.15,West,280,6.0,6.0,56,0.00,,,0.00,Wunderground v.1.15,2013-10-26 04:50:00,
2013-10-25 23:56:00,42.5,27.9,30.15,West,275,6.0,7.0,56,0.00,,,0.00,Wunderground v.1.15,2013-10-26 04:56:00,